Weather in Alice Springs

Australia     23°43′24″S   133°53′01″E
temp.,
°C
wind,
m/s
gust,
m/s
humid.,
%
clouds,
%
prec.,
mm/h
press.,
hPa
HPBL,
m
23 october, sat
sat2300:30+27e6132070 0.0 1013351
03:30+24e47240 0.0 1012118
06:30+23se343540 0.0 101579
09:30+27ese99230 0.0 10171451
12:30+30ese67210 0.0 10161901
15:30+33se98170 0.0 10111974
18:30+31ese910196 0.1 10111234
21:30+26se914275 0.1 1015721
24 october, sun
sun2400:30+23ese713325 0.0 1016597
03:30+21se71338100 0.0 1016555
06:30+19se7134021 0.4 1019666
09:30+24ese911285 0.8 10191110
12:30+29e8821100 0.0 10151594
15:30+31ese542099 0.0 10122305
18:30+29se7102193 0.0 1013374
21:30+25se91425100 0.0 1015589
25 october, mon
mon2500:30+22ese7133019 0.0 1015509
03:30+19ese510344 0.0 1015298
06:30+19ese49350 0.0 1018346
09:30+25e78240 0.0 1017946
12:30+31e55200 0.0 10131799
15:30+33ese55182 0.0 10103019
18:30+31ese792135 0.0 1010332
21:30+27ese511269 0.0 1012306
26 october, tue
tue2600:30+24ne123220 0.0 101218
03:30+23ene44333 0.0 101249
06:30+23ene36330 0.0 1014109
09:30+31nne89221 0.0 10131625
12:30+36n76182 0.0 10103153
15:30+36n661797 0.0 10073687
18:30+33w332399 0.0 100852
21:30+29wsw81034100 0.1 1011224
27 october, wed
wed2700:30+27n2341100 0.2 101087
03:30+29nnw4730100 0.2 1009128
06:30+29wnw4732100 0.0 1011152
09:30+31n56298 0.0 1012756
12:30+38nw761865 0.0 10093946
15:30+35nw1092283 0.1 10081653
18:30+34nw69268 0.0 1008463
21:30+31nnw7113181 0.3 1011371